Location: Newark
(48.9320°N, 2.2664°E)
Time: 01:53:27
(UTC+00:00)

Vanguard 1 Rocket - Pass Details

Date: 25 February 2020
Orbit: 650 x 4226 km, 34.3° (Epoch: 08 April)

Event Time Altitude Azimuth Distance (km) Brightness Sun altitude
Rises 04:36:17 0° 252° (WSW) 3,838 - -21.4°
Reaches altitude 10° 04:40:35 10° 228° (SW) 2,435 - -20.7°
Maximum altitude 04:43:19 14° 197° (SSW) 1,954 - -20.2°
Exits shadow 04:43:22 14° 196° (SSW) 1,952 8.9 -20.2°
Drops below altitude 10° 04:45:45 10° 164° (SSE) 2,096 9.3 -19.8°
Sets 04:48:56 0° 137° (SE) 2,951 10.5 -19.3°
